Regional Weather Roundup
Issued by NWS Northern Indiana

Home | Current Version | Previous Version | Text Only | Print | Product List | Glossary Off
Versions: 1 2 3 4 5 6 7 8 9 10 11 12 13 14 15 16 17 18 19 20 21 22 23 24 25 26 27 28 29 30 31 32 33 34 35 36 37 38 39 40 41 42 43 44 45 46 47 48 49 50

000
ASUS43 KIWX 300810
RWRIWX

KIWX WEATHER ROUNDUP
NATIONAL WEATHER SERVICE NORTHERN INDIANA
400 AM EDT SAT APR 30 2016

NOTE: "FAIR" INDICATES FEW OR NO CLOUDS BELOW 12,000 FEET WITH NO
SIGNIFICANT WEATHER AND/OR OBSTRUCTIONS TO VISIBILITY.

* THESE STATIONS ARE NOT UNDER NWS QUALITY CONTROL. THEY ALSO MAY NOT
  REPORT WEATHER SUCH AS PRECIPITATION OR FOG.

INZ001>027-300900-
NORTHERN INDIANA

CITY           SKY/WX    TMP DP  RH WIND       PRES   REMARKS
GARY*          PTCLDY    47  47 100 NE7       30.06F
VALPARAISO     CLOUDY    45  42  89 NE9       30.05F FOG
MICHIGAN CITY* MOCLDY    43  43 100 E3        30.07S
LAPORTE*       CLOUDY    47  47 100 E8        30.07S
KNOX*          PTCLDY    43  41  93 E7        30.05F
SOUTH BEND     PTCLDY    46  41  82 E8        30.07F
GOSHEN         CLEAR     43  40  89 E6        30.08S FOG
MONTICELLO*    PTCLDY    48  43  82 E6        30.01F
LOGANSPORT*    MOCLDY    46  45  93 E8        30.04F
ROCHESTER*     CLEAR     46  45  93 E10       30.05F
WARSAW*        CLEAR     43  41  93 E7        30.08R FOG
ANGOLA*        CLEAR     43  30  61 E9        30.09F
FORT WAYNE     PTCLDY    43  40  89 E8        30.09S
HUNTINGTON*    CLEAR    N/A N/A N/A E6        30.06F
PERU/GRISSOM   CLOUDY    49  47  93 E13       30.02F
MARION*        MOCLDY    47  44  88 E9        30.04F

$$
INZ028>050-300900-
CENTRAL INDIANA

CITY           SKY/WX    TMP DP  RH WIND       PRES   REMARKS
LAFAYETTE      PTCLDY    50  45  83 E10       30.01F
KOKOMO*        CLOUDY    48  43  81 E12       30.02F
MUNCIE*        CLOUDY    50  44  80 E10       30.03F
INDIANAPOLIS   CLOUDY    52  46  80 E13       29.98F

$$
MIZ043>046-050>051-056>058-064>065-071>073-077>080-300900-
SOUTHWEST LOWER MICHIGAN

CITY           SKY/WX    TMP DP  RH WIND       PRES   REMARKS
BATTLE CREEK   CLOUDY    47  39  74 E6        30.11F
BENTON HARBOR  CLOUDY    45  39  79 E5        30.08F
COLDWATER*     CLOUDY    46  38  73 E9        30.10F
HILLSDALE*     CLOUDY    45  40  81 E6        30.10F
HOLLAND        CLEAR     42  38  85 NE6       30.12F
GRAND RAPIDS   CLEAR     40  36  86 NE7       30.13F
KALAMAZOO      CLOUDY    49  40  71 E3        30.10F
STURGIS*       PTCLDY    44  38  80 E7        30.08S
THREE RIVERS*  MOCLDY    46  38  74 E6        30.10S

$$
OHZ001>008-015>018-024>025-300900-
NORTHWEST OHIO

CITY           SKY/WX    TMP DP  RH WIND       PRES   REMARKS
WAUSEON*         N/A     43 N/A N/A E7        30.11F
DEFIANCE       PTCLDY    44  39  82 E8        30.10F
FINDLAY        CLEAR     41  35  79 E9        30.09F
TOLEDO EXPRESS CLEAR     40  35  83 NE6       30.12F
TOLEDO METCALF CLEAR     42  36  79 NE6       30.14F
LIMA           PTCLDY    41  39  93 E6        30.08F

$$
AND FOR LAKE MICHIGAN COASTAL AND OPEN LAKE BUOY OBSERVATIONS

STATION/POSITION TEMP    WIND        PRES    VSBY  WAVE
                 AIR SEA DIR/SP/G                  HT/PER
                 (F)     (DEG/KT/KT) (MB)    (MI)  (FT/S)
CALUMET HARBOR    43      20/  6/  8 1017.5F
MICHIGAN CITY     46      40/ 10/ 11   N/A
BURNS HARBOR      47      70/ 12/ 13 1018.3F
SAINT JOSEPH      46      CALM  /  2 1019.3R
SOUTH LAKE BUOY   42 40   60/ 10/ 12 1019.5F         1
4 MI NW BRIDGMAN  48 48                N/A           1/ 4

$$
&&




USA.gov is the U.S. government's official web portal to all federal, state and local government web resources and services.